Regional Weather Roundup
Issued by NWS Portland, ME

Home | Current Version | Previous Version | Text Only | Print | Product List | Glossary On
Versions: 1 2 3 4 5 6 7 8 9 10 11 12 13 14 15 16 17 18 19 20 21 22 23 24 25 26 27 28 29 30 31 32 33 34 35 36 37 38 39 40 41 42 43 44 45 46 47 48 49 50
000
ASUS41 KGYX 271910
RWRGYX
WEATHER ROUNDUP FOR MAINE AND NEW HAMPSHIRE
NATIONAL WEATHER SERVICE GRAY ME
300 PM EDT TUE SEP 27 2016

MEZ002-005-006-010-012-015-018-020-021-024-026-027-029-272000-
MAINE

CITY           SKY/WX    TMP DP  RH WIND       PRES   REMARKS
PORTLAND       CLOUDY    68  57  68 VRB3      29.89R
SANFORD        CLOUDY    69  59  70 NE3       29.89R
BAR HARBOR     CLOUDY   N/A N/A N/A NE8       29.89S
WISCASSET      CLOUDY    68  56  65 NW5       29.89S
ROCKLAND       PTSUNNY   63  58  83 NE8       29.88S
FRYEBURG       SUNNY     70  54  56 VRB5      29.89R
LEWISTONAUBURN CLOUDY    68  56  65 CALM      29.88S
AUGUSTA        CLOUDY    67  54  63 VRB3      29.88S
WATERVILLE     CLOUDY    64  56  75 CALM      29.86S
BANGOR         CLOUDY    61  53  75 N6        29.90S
GREENVILLE       N/A     59  52  77 SE6       29.88R
MILLINOCKET    CLOUDY    58  47  66 E5        29.92S
HOULTON        CLOUDY    56  47  71 NE5       29.92R
PRESQUE ISLE   CLOUDY    53  46  77 NE6       29.95R
FRENCHVILLE    CLOUDY    49  43  80 NE8       29.95S
CARIBOU        CLOUDY    52  44  74 E6        29.95R
$$

NHZ002-005-008-009-011-012-014-272000-
NEW HAMPSHIRE

CITY           SKY/WX    TMP DP  RH WIND       PRES   REMARKS
PORTSMOUTH     PTSUNNY   71  58  65 W5        29.88R
ROCHESTER      CLOUDY    69  55  60 CALM      29.88R
NASHUA         MOSUNNY   70  58  65 CALM      29.90R
MANCHESTER     CLOUDY    70  54  56 VRB3      29.88S
CONCORD        CLOUDY    71  53  52 VRB3      29.89S
LACONIA        SUNNY     69  50  50 CALM      29.90R
PLYMOUTH       FAIR      71  45  39 CALM      29.89R
BERLIN         SUNNY     69  46  43 VRB6      29.90R
WHITEFIELD     MOSUNNY   68  47  46 VRB3      29.91R
JAFFREY        CLOUDY    68  53  58 S5        29.92S
KEENE          MOSUNNY   69  50  50 VRB3      29.90S
LEBANON        SUNNY     70  51  51 S5        29.89S
MT WASHINGTON  MOSUNNY   41  36  81 W8          N/A
$$

VTZ005-007-008-272000-
VERMONT

CITY           SKY/WX    TMP DP  RH WIND       PRES   REMARKS
ST JOHNSBURY     N/A     68  49  50 MISG      29.88R
MONTPELIER     MOSUNNY   69  43  38 VRB3      29.93S
BURLINGTON     MOSUNNY   72  43  35 VRB3      29.86F
$$

MAZ007-012-024-CTZ003-RIZ002-NYZ038-NYZ072-272000-
SOUTHERN NEW ENGLAND AND NY

CITY           SKY/WX    TMP DP  RH WIND       PRES   REMARKS
BOSTON         CLOUDY    68  61  78 SE8       29.89S
WORCESTER      CLOUDY    69  55  60 CALM      29.91S
NANTUCKET      CLOUDY   N/A N/A N/A SW9       29.91F
PROVIDENCE     PTSUNNY   71  60  68 CALM      29.89F
HARTFORD       CLOUDY    73  54  51 W5        29.90R
ALBANY         MOSUNNY   71  50  47 E7        29.88F
NEW YORK CITY  PTSUNNY   75  55  49 N5        29.88F
$$

ANZ081-ANZ082-ANZ150-NHZ014-MEZ023>029-272000-
COASTAL MARINE OBSERVATIONS

STATION/POSITION TIME  TEMP    WIND        PRES    WAVE
                       AIR SEA DIR/SP/G            HT/PER
                 (UTC) (F)     (DEG/KT/KT) (MB)    (FT/S)
MOUNT DESERT ROC 1900   56     340/  5/  5 1012.0R
MATINICUS ROCK   1800   58     320/  6/  6 1011.5R
ISLE OF SHOALS   1800   64     300/  2/  2 1011.6F
JEFFREYS LEDGE   1838      62                N/A     2/ 5
CASHES LEDGE BUO 1850   58 60  320/  6/  6 1011.8R   3/ 6
GEORGES BANK BUO 1750   68 63              1014.6    6/ 6
$$

.............KEY..............
   WCI - WIND CHILL
   TC  - TEMPERATURE IN CELSIUS
   VSB - VISIBILITY IN MILES
   HX  - HEAT INDEX
   FAIR- INDICATES FEW OR NO CLOUDS BELOW 12,000 FT, WITH NO
         SIGNIFICANT WEATHER AND/OR OBSTRUCTIONS TO VISIBILITY.






USA.gov is the U.S. government's official web portal to all federal, state and local government web resources and services.